Location: Mountain View
(37.3861°N, 122.0839°W)
Time: 03:54:06
(UTC-08:00)

ISS - Visible Passes

Search period start: 15 December 2017 00:00
Search period end: 25 December 2017 00:00
Orbit: 402 x 407 km, 51.6° (Epoch: 15 December)

Date Brightness Start Highest point End Pass type
(mag) Time Alt. Az. Time Alt. Az. Time Alt. Az.
15 Dec -3.6 18:14:25 10° NW 18:17:41 68° SW 18:19:57 18° SE visible
16 Dec -3.7 17:22:10 10° NW 17:25:26 57° NE 17:28:39 10° ESE visible
16 Dec -0.6 19:00:08 10° WSW 19:01:31 12° SW 19:02:54 10° SSW visible
17 Dec -1.3 18:06:43 10° WNW 18:09:27 24° SW 18:12:10 10° S visible
